Location: Altamira
(10.5079°N, 66.8544°W)
Time: 17:32:42
(UTC+00:00)

Cosmos 2360 Rocket - Pass Details

Date: 13 December 2025
Orbit: 834 x 842 km, 71.0° (Epoch: 14 January)

Event Time Altitude Azimuth Distance (km) Brightness Sun altitude
Rises 23:05:13 0° 193° (SSW) 3,387 5.9 -14.0°
Reaches altitude 10° 23:07:40 10° 192° (SSW) 2,453 5.1 -14.5°
Maximum altitude 23:13:18 81° 105° (ESE) 852 2.1 -15.8°
Enters shadow 23:18:29 12° 19° (NNE) 2,284 4.1 -17.0°
